Location: Deersum
(53.0869°N, 5.7158°E)
Time: 10:37:09
(UTC+00:00)

Daily predictions for brighter satellites

Satellite Brightness Start Highest point End
(mag) Time Altitude Azimuth Time Altitude Azimuth Time Altitude Azimuth
Cosmos 1400 Rocket 2.7 18:26:10 10° NNW 18:30:02 84° ENE 18:33:48 10° SSE
ACS3 Solar Sail 2.6 18:26:36 10° ESE 18:32:15 34° ENE 18:37:55 10° N
Cosmos 1066 Rocket 4.4 18:26:32 10° NNW 18:32:27 85° ENE 18:38:17 10° SSE
BlueWalker 3 3.5 18:29:49 10° W 18:33:03 28° SW 18:36:17 10° SSE
Cosmos 2322 3.8 18:27:41 10° SSW 18:33:12 58° ESE 18:38:45 10° NE
Cosmos 2233 Rocket 4.0 18:28:27 10° S 18:34:35 84° E 18:40:49 10° NNE
Cosmos 1726 1.2 18:34:12 10° S 18:36:58 81° E 18:39:46 10° NNE
Resurs 1-3 3.6 18:33:25 10° SSE 18:37:45 87° WSW 18:42:07 10° NNW
Terra 3.8 18:36:23 10° ENE 18:38:25 13° NE 18:40:26 10° NNE
SAR-Lupe-2 4.1 18:42:10 10° S 18:45:42 61° WSW 18:49:16 10° NNW
Cosmos 1315 Rocket 3.8 18:42:15 10° N 18:45:44 28° ENE 18:49:12 10° SE
Cosmos 1125 Rocket 3.6 18:44:33 10° NNW 18:49:43 58° ENE 18:54:50 10° SE
Meteor PRIRODA 3.6 18:47:10 10° S 18:50:28 74° WSW 18:53:45 10° NNW
Cosmos 1464 Rocket 4.4 18:44:51 10° SSE 18:50:43 42° E 18:56:38 10° NNE
ATLAS 2AS CENTAUR R/B 3.9 18:44:07 10° W 18:50:57 44° NNW 18:57:32 10° NE
Cosmos 1842 3.0 18:47:21 10° N 18:50:59 76° E 18:54:36 10° SSE
USA 59 Rocket 1.0 18:49:27 10° WNW 18:53:01 43° SW 18:57:49 10° SSE
SL-16 R/B 4.0 18:53:32 10° E 18:53:32 10° E 18:54:34 10° E
Cosmos 1707 2.4 18:51:15 10° N 18:54:48 69° ENE 18:58:20 10° SSE
Cosmos 1515 Rocket 3.7 18:50:46 10° N 18:55:02 55° ENE 18:59:19 10° SSE
Cosmos 1536 3.3 18:51:48 10° SSE 18:55:17 35° E 18:58:48 10° NNE
Okean 3 Rocket 4.0 18:51:35 10° SSE 18:55:47 41° E 18:59:58 10° NNE
COSMOS 2428 2.7 18:51:18 10° SSW 18:56:58 70° ESE 19:02:42 10° NE
Okean O Rocket 2.0 18:57:52 10° SE 19:02:04 44° ENE 19:06:17 10° N
Cosmos 1818 3.7 18:56:37 10° SW 19:02:06 83° NW 19:07:38 10° NE
Feng Yun 1-1 Rocket 4.4 18:57:22 10° SSE 19:03:07 70° ENE 19:09:02 10° NNW
SL-14 R/B 4.5 19:00:22 10° NNE 19:03:30 24° ENE 19:05:27 16° ESE
Cosmos 2278 Rocket 2.4 19:00:03 10° NW 19:05:43 74° WSW 19:11:22 10° SSE
Meteor 1-13 Rocket 4.3 19:02:22 10° N 19:08:15 65° ENE 19:13:59 10° SSE
USA 306 2.4 19:05:28 10° SW 19:08:36 58° SSE 19:11:31 15° E
CZ-4 R/B 1.7 19:07:13 10° S 19:11:01 64° WSW 19:14:56 10° NNW
PSLV R/B 4.3 19:09:57 18° ESE 19:12:05 34° ENE 19:15:18 10° N
Cosmos 2034 Rocket 4.4 19:07:15 10° SSE 19:12:58 41° E 19:18:40 10° NNE
CZ-4B R/B 3.1 19:09:02 10° SSE 19:14:29 86° ENE 19:19:53 10° NNW
Cosmos 1500 Rocket 4.3 19:10:49 10° SSE 19:14:37 30° E 19:18:26 10° NNE
Cosmos 1766 Rocket 3.7 19:11:03 10° SSW 19:15:25 76° WNW 19:19:51 10° N
Helios 1A 2.9 19:11:21 10° NNE 19:15:27 88° WNW 19:19:30 10° SSW
USA 290 3.7 19:13:01 10° NW 19:16:06 38° WSW 19:19:11 10° S
Resurs 01 Rocket 1.7 19:12:08 10° SSE 19:16:33 85° WSW 19:21:01 10° NNW
Meteor 2-10 4.3 19:13:13 10° S 19:18:38 53° E 19:24:12 10° NNE
GEOS 3 Rocket 4.3 19:14:21 10° SSE 19:19:25 50° SW 19:24:28 10° NW
Cosmos 1743 Rocket 4.5 19:19:19 19° SE 19:21:22 27° E 19:25:02 10° NNE
USA 186 2.2 19:18:39 10° S 19:21:50 63° WSW 19:25:05 10° NNW
Cosmos 1814 Rocket 4.1 19:18:00 10° SSW 19:23:18 83° WNW 19:28:35 10° NNE
Cosmos 2360 Rocket 4.1 19:18:40 10° WSW 19:23:39 31° NW 19:28:40 10° NNE
MOS 1-B 4.3 19:18:35 10° SSE 19:24:22 83° ENE 19:30:12 10° NNW
SPOT 5 3.2 19:22:14 19° SE 19:25:05 42° ENE 19:29:16 10° N
Okean-O 3.0 19:23:05 20° SE 19:25:51 45° ENE 19:30:04 10° N
USA 267 3.5 19:21:01 12° E 19:27:09 65° N 19:33:38 10° WNW
Cosmos 2208 Rocket 4.5 19:22:48 10° S 19:27:38 38° ESE 19:32:34 10° NE
Cosmos 1408 Rocket 3.7 19:25:15 10° S 19:29:29 52° E 19:33:48 10° NNE
ISS -2.8 19:27:29 10° SSW 19:30:24 28° SSE 19:30:43 27° SE
CZ-4B R/B 4.1 19:27:26 10° S 19:31:09 42° W 19:35:04 10° NNW
NOSS 3-3 (A) 4.3 19:26:20 10° S 19:31:11 34° ESE 19:36:45 10° NE
SL-08 R/B 4.1 19:27:06 10° N 19:31:56 57° WNW 19:36:45 10° SW
Kosmos-1783 2.9 19:31:14 10° WSW 19:33:05 40° NW 19:33:11 39° NNW
Cosmos 2237 Rocket 2.2 19:30:29 10° SSW 19:36:00 60° ESE 19:41:32 10° NE
MOS 1 4.4 19:31:48 17° SE 19:36:13 63° ENE 19:41:51 10° NNW
Cosmos 2322 Rocket 4.5 19:31:43 10° W 19:36:23 25° NW 19:41:03 10° NNE
CSL-04 Rocket 3.9 19:32:59 10° S 19:38:20 72° WSW 19:43:39 10° NNW
Aureole 3 Rocket 3.8 19:32:21 10° S 19:38:38 51° E 19:43:12 10° NNE
Cosmos 2219 Rocket 3.7 19:35:39 10° WSW 19:40:55 38° NW 19:46:12 10° NNE
Cosmos 2297 4.1 19:38:44 10° NNW 19:44:12 48° NE 19:47:04 26° ESE
IKONOS-2 4.4 19:41:06 10° NNE 19:45:16 65° ESE 19:49:22 10° S
Meteor 1-11 Rocket 3.6 19:42:03 10° S 19:47:39 79° E 19:53:13 10° NNE
MOS 1 Rocket 3.7 19:45:38 26° SE 19:48:24 55° ENE 19:53:36 10° N
Spot 2 Rocket 4.2 19:50:58 28° ESE 19:52:44 38° ENE 19:57:22 10° N
NOSS 3-4 (A) 3.9 19:46:17 10° NW 19:52:47 68° NE 19:57:11 26° ESE
ATLAS CENTAUR R/B 1.1 19:49:22 10° SSW 19:52:51 51° SE 19:54:53 23° ENE
Cosmos 158 Rocket 3.7 19:48:04 10° SSW 19:52:52 66° ESE 19:57:43 10° NNE
NOSS 3-4 (C) 3.9 19:46:24 10° NW 19:52:53 67° NE 19:57:17 26° ESE
Cosmos 1805 Rocket 3.5 19:52:47 20° S 19:55:37 62° E 19:59:55 10° NNE
Cosmos 1428 Rocket 4.4 19:50:50 10° NNW 19:56:59 86° W 20:02:18 14° S
Cosmos 1733 3.7 19:56:31 10° SSW 19:59:53 51° WNW 20:03:16 10° N
USA 276 4.4 19:59:35 10° WSW 20:00:38 12° SW 20:00:38 12° SW
Cosmos 2369 Rocket 2.5 19:57:14 10° NNW 20:02:52 53° NE 20:05:12 33° ESE
SL-24 R/B 4.3 20:01:56 27° SSE 20:04:34 74° E 20:09:23 10° N
Cosmos 1633 Rocket 4.4 20:06:10 23° ENE 20:06:10 23° ENE 20:08:49 10° NNE
Cosmos 1980 3.7 19:59:51 10° SSW 20:05:32 86° WNW 20:11:17 10° NNE
Cosmos 1862 Rocket 4.0 20:01:37 10° N 20:05:51 44° ENE 20:06:32 40° E
Meteor 1-21 4.2 20:01:33 10° NNW 20:07:20 78° ENE 20:10:23 29° SSE
Cosmos 1943 Rocket 3.3 20:04:33 10° NW 20:09:37 38° WSW 20:14:05 13° S
Cosmos 1707 Rocket 3.7 20:05:54 10° N 20:10:17 54° ENE 20:11:04 47° ESE
Sich 1 2.9 20:07:33 17° S 20:10:48 89° W 20:15:09 10° N
DELTA 2 DEB (DPAF) 3.9 20:06:47 10° NNE 20:10:56 59° ESE 20:11:47 48° SSE
Cosmos 2298 Rocket 4.3 20:08:17 10° NNW 20:13:32 63° WSW 20:16:27 26° S
NOSS 0 Rocket 4.3 20:07:59 10° SW 20:14:12 67° NW 20:20:27 10° NNE
Terra 1.8 20:13:53 45° SE 20:15:06 62° ENE 20:19:47 10° N
Cosmos 2150 Rocket 4.3 20:10:08 10° NNW 20:15:14 61° WSW 20:17:56 27° S
USA 32 4.2 20:10:26 10° N 20:15:40 70° W 20:19:24 19° S
ERS-1 Rocket 2.9 20:14:03 40° SE 20:15:53 74° ENE 20:20:56 10° NNW
ACS3 Solar Sail 2.4 20:09:40 10° S 20:16:00 60° W 20:22:22 10° NNW
Cosmos 1666 Rocket 4.3 20:18:27 36° ENE 20:18:27 36° ENE 20:21:50 10° NNE
Cosmos 1570 Rocket 4.2 20:12:55 10° SSW 20:18:12 75° WNW 20:23:30 10° NNE
Cosmos 1975 2.6 20:18:58 67° ESE 20:19:02 67° E 20:22:55 10° NNE
Cosmos 1315 Rocket 4.3 20:18:14 10° NNW 20:21:49 33° W 20:24:27 16° SSW
Cosmos 2026 Rocket 4.1 20:15:34 10° NNW 20:21:50 77° W 20:25:51 23° S
Cosmos 1092 Rocket 4.1 20:15:58 10° NNW 20:22:18 79° W 20:26:28 23° S
Cosmos 1805 3.4 20:21:35 33° SSW 20:23:03 66° WNW 20:26:43 10° N
Ariane Rocket 3.1 20:24:21 47° ESE 20:25:25 57° ENE 20:30:24 10° N
Meteor 2-12 Rocket 4.4 20:19:26 10° NNW 20:25:39 86° W 20:28:56 30° S
Cosmos 836 Rocket 4.5 20:23:24 10° SSW 20:28:42 87° WNW 20:34:03 10° NNE
IRS-1A Rocket 4.3 20:26:28 33° SSE 20:29:10 83° WSW 20:34:54 10° NNW
Okean 3 3.3 20:28:32 10° N 20:32:42 72° ENE 20:32:44 72° E
SL-16 R/B 2.2 20:35:16 48° SSE 20:36:24 56° ESE 20:41:57 10° NE
Okean O Rocket 3.5 20:35:02 12° SSW 20:38:30 27° W 20:42:18 10° NW
Cosmos 1656 Rocket 3.7 20:34:02 10° NW 20:39:42 74° WSW 20:41:19 47° S
Cosmos 1634 Rocket 3.9 20:36:32 25° S 20:40:30 87° E 20:46:53 10° N
USA 306 3.0 20:37:43 10° W 20:40:35 58° WNW 20:40:35 58° WNW
ATLAS 2AS CENTAUR R/B 4.0 20:37:03 10° WNW 20:43:26 35° N 20:49:08 12° ENE
Okean 2 3.7 20:41:26 10° N 20:44:48 55° NNE 20:44:48 55° NNE
IRS-1C Rocket 4.3 20:45:02 41° S 20:46:48 66° WSW 20:52:05 10° NNW
Cosmos 773 Rocket 3.9 20:45:39 26° SSW 20:48:44 90° ESE 20:54:04 10° NNE
Okean 1-7 3.3 20:44:52 10° N 20:48:39 56° NE 20:48:39 56° NE
Cosmos 2263 4.1 20:45:09 10° NNW 20:50:55 81° ENE 20:51:55 62° SE
Resurs 01 Rocket 4.5 20:51:43 10° WSW 20:53:41 13° W 20:55:39 10° WNW
Cosmos 2228 Rocket 3.6 20:50:07 10° NNW 20:54:37 58° W 20:55:20 51° SW
Cosmos 1766 4.5 21:00:19 34° N 21:00:19 34° N 21:02:32 10° N
SPOT 3 Rocket 3.4 21:00:55 69° S 21:01:32 82° WSW 21:06:42 10° NNW
Okean-O 4.4 21:00:31 20° SW 21:02:24 26° W 21:06:08 10° NW
SPOT 5 4.3 21:01:22 22° SW 21:03:14 29° W 21:07:09 10° NW
Cosmos 2142 Rocket 4.3 21:02:36 59° SSE 21:03:45 77° E 21:09:56 10° NNE
CZ-4C R/B 4.2 21:01:34 10° NNE 21:04:14 43° N 21:04:14 43° N
ISS -0.8 21:03:33 10° WSW 21:03:42 11° WSW 21:03:42 11° WSW
NOSS 3-3 (C) 3.9 21:01:42 10° SW 21:07:19 81° NW 21:14:04 10° NE
ARIANE 5 R/B 4.3 21:08:15 23° NE 21:08:15 23° NE 21:10:52 10° N
Cosmos 1655 Rocket 4.2 21:03:43 10° N 21:10:01 56° ENE 21:10:37 54° E
USA 267 3.1 21:08:22 54° ESE 21:10:03 90° SSW 21:16:38 10° WNW
Cosmos 2344 4.2 21:04:48 10° NW 21:12:16 54° NNE 21:17:16 28° E
Cosmos 724 4.1 21:15:31 78° SSE 21:15:45 80° SE 21:21:36 10° NE
Cosmos 2180 Rocket 4.4 21:17:01 63° S 21:18:07 83° E 21:24:32 10° NNE
Cosmos 2237 Rocket 3.7 21:15:15 10° WSW 21:20:23 35° NW 21:25:32 10° NNE
NOSS 3-3 (A) 4.1 21:15:57 10° WSW 21:21:35 68° NW 21:28:21 10° NE
Cosmos 2279 Rocket 4.1 21:20:00 44° SSW 21:22:05 73° WNW 21:28:19 10° N
MetOp-A 4.2 21:23:14 56° NNE 21:23:14 56° NNE 21:27:21 10° N
Meteor 2-5 Rocket 4.3 21:18:46 10° N 21:24:27 47° ENE 21:24:27 47° ENE
Meteor 1-24 Rocket 4.3 21:19:42 10° N 21:25:23 48° ENE 21:25:23 48° ENE
Cosmos 1607 3.9 21:19:15 10° SW 21:25:44 87° NW 21:32:13 10° NE
ATLAS CENTAUR R/B 3.0 21:27:07 10° W 21:35:08 - NE 21:29:51 29° NW
Spot 2 Rocket 4.4 21:31:06 38° WSW 21:31:40 39° W 21:36:24 10° NNW
Cosmos 1633 Rocket 4.2 21:43:08 41° NW 21:43:08 41° NW 21:46:55 10° N
NOSS 3-4 (A) 4.4 21:37:14 10° NW 21:43:38 44° WSW 21:44:37 42° SW
NOSS 3-4 (C) 4.4 21:37:20 10° NW 21:43:45 44° WSW 21:44:43 42° SW
Cosmos 2369 Rocket 3.2 21:41:33 10° NW 21:46:43 36° WSW 21:46:58 36° WSW
Terra 3.7 21:52:34 21° W 21:53:05 21° W 21:56:42 10° NW
Cosmos 489 Rocket 4.4 21:47:15 10° NNW 21:53:37 78° ENE 21:53:37 78° ENE
ACS3 Solar Sail 4.4 21:58:40 10° WSW 22:01:25 13° WNW 22:04:10 10° NW
ALOS 2 4.4 22:10:19 26° NNE 22:10:19 26° NNE 22:12:38 10° N
Cosmos 1980 Rocket 4.1 22:04:25 10° NNW 22:08:36 21° NNE 22:10:31 18° ENE
Meteor 2-10 Rocket 4.4 22:13:48 44° NNE 22:13:48 44° NNE 22:17:35 10° NNE
Cosmos 2056 Rocket 4.2 22:09:49 10° NNW 22:13:50 53° NNW 22:13:50 53° NNW
USA 215 4.5 22:09:56 10° ENE 22:12:42 27° ENE 22:12:42 27° ENE
SL-16 R/B 3.5 22:17:00 17° WSW 22:20:47 37° NW 22:26:03 10° NNE
ATLAS 2AS CENTAUR R/B 3.1 22:28:51 10° NW 22:35:41 56° NNE 22:36:31 53° ENE
Cosmos 1943 3.8 22:41:44 53° NNW 22:41:44 53° NNW 22:46:25 10° NNE
Cosmos 1656 4.3 22:35:19 10° NNW 22:39:42 54° NNW 22:39:42 54° NNW
Cosmos 1553 Rocket 4.3 22:49:37 62° NNE 22:49:37 62° NNE 22:54:46 10° NNE
Cosmos 1697 Rocket 3.5 22:47:49 10° NNW 22:52:28 46° NNE 22:52:28 46° NNE
Cosmos 1709 Rocket 4.5 22:47:06 10° N 22:52:39 54° NE 22:52:39 54° NE
USA 267 4.3 22:55:43 32° W 22:55:43 32° W 22:59:40 10° WNW
ATLAS CENTAUR R/B 4.2 23:09:53 15° N 23:09:53 15° N 23:11:23 10° NNE
Cosmos 2344 3.9 23:19:06 10° NW 23:27:09 67° SW 23:27:14 67° SW
SL-16 R/B 4.3 23:29:33 10° NNW 23:33:57 22° NNE 23:37:43 12° ENE
S3M 4.3 23:44:43 60° N 23:44:43 60° N 23:49:48 10° N
CZ-2C R/B 4.4 23:46:19 23° ENE 23:46:46 23° NE 23:50:45 10° N
Cosmos 1980 Rocket 3.0 23:48:07 10° NNW 23:52:13 46° N 23:52:13 46° N
